Time,TemperatureF,DewpointF,PressureIn,WindDirection,WindDirectionDegrees,WindSpeedMPH,WindSpeedGustMPH,Humidity,HourlyPrecipIn,Conditions,Clouds,dailyrainin,SoftwareType,DateUTC
2013-04-23 00:14:00,51.8,44.0,30.06,WSW,242,0.0,-999.0,75,-99.99,,,0.00,weatherlink.com 1.10,2013-04-23 04:14:00,
2013-04-23 00:29:00,51.6,44.0,30.06,WSW,242,0.0,-999.0,75,-99.99,,,0.00,weatherlink.com 1.10,2013-04-23 04:29:00,
2013-04-23 00:44:00,51.4,44.0,30.06,WSW,242,0.0,-999.0,75,-99.99,,,0.00,weatherlink.com 1.10,2013-04-23 04:44:00,
2013-04-23 00:59:00,51.7,43.0,30.06,WSW,242,0.0,-999.0,73,-99.99,,,0.00,weatherlink.com 1.10,2013-04-23 04:59:00,
2013-04-23 01:14:00,51.4,43.0,30.06,WSW,242,0.0,-999.0,74,-99.99,,,0.00,weatherlink.com 1.10,2013-04-23 05:14:00,
2013-04-23 01:29:00,51.1,43.0,30.06,WSW,242,0.0,-999.0,74,-99.99,,,0.00,weatherlink.com 1.10,2013-04-23 05:29:00,
2013-04-23 01:45:00,51.0,43.0,30.05,WSW,242,0.0,-999.0,74,-99.99,,,0.00,weatherlink.com 1.10,2013-04-23 05:45:00,
2013-04-23 02:00:00,50.8,43.0,30.05,WSW,242,0.0,-999.0,75,-99.99,,,0.00,weatherlink.com 1.10,2013-04-23 06:00:00,
2013-04-23 02:15:00,50.5,43.0,30.05,WSW,242,1.0,-999.0,76,-99.99,,,0.00,weatherlink.com 1.10,2013-04-23 06:15:00,
2013-04-23 02:30:00,50.3,44.0,30.04,WSW,242,0.0,-999.0,78,-99.99,,,0.00,weatherlink.com 1.10,2013-04-23 06:30:00,
2013-04-23 02:45:00,50.1,44.0,30.04,WSW,242,1.0,-999.0,79,-99.99,,,0.00,weatherlink.com 1.10,2013-04-23 06:45:00,
2013-04-23 03:00:00,50.4,44.0,30.03,WSW,242,0.0,-999.0,79,-99.99,,,0.00,weatherlink.com 1.10,2013-04-23 07:00:00,
2013-04-23 03:15:00,51.1,44.0,30.03,WSW,242,0.0,-999.0,77,-99.99,,,0.00,weatherlink.com 1.10,2013-04-23 07:15:00,
2013-04-23 03:30:00,51.4,44.0,30.02,WSW,242,0.0,-999.0,77,-99.99,,,0.00,weatherlink.com 1.10,2013-04-23 07:30:00,
2013-04-23 03:45:00,51.7,45.0,30.01,SSE,167,1.0,-999.0,78,-99.99,,,0.00,weatherlink.com 1.10,2013-04-23 07:45:00,
2013-04-23 04:00:00,51.7,45.0,30.00,SSE,159,1.0,-999.0,78,-99.99,,,0.00,weatherlink.com 1.10,2013-04-23 08:00:00,
2013-04-23 04:15:00,51.4,45.0,29.99,SSE,159,2.0,-999.0,79,-99.99,,,0.00,weatherlink.com 1.10,2013-04-23 08:15:00,
2013-04-23 04:30:00,51.7,45.0,29.98,SSE,153,4.0,-999.0,78,-99.99,,,0.00,weatherlink.com 1.10,2013-04-23 08:30:00,
2013-04-23 04:45:00,51.8,45.0,29.98,SE,143,2.0,-999.0,78,-99.99,,,0.00,weatherlink.com 1.10,2013-04-23 08:45:00,
2013-04-23 05:00:00,51.5,45.0,29.99,SE,143,4.0,-999.0,79,-99.99,,,0.00,weatherlink.com 1.10,2013-04-23 09:00:00,
2013-04-23 05:15:00,51.1,45.0,30.00,SE,143,0.0,-999.0,80,-99.99,,,0.00,weatherlink.com 1.10,2013-04-23 09:15:00,
2013-04-23 05:30:00,52.2,46.0,30.00,SE,143,2.0,-999.0,78,-99.99,,,0.00,weatherlink.com 1.10,2013-04-23 09:30:00,
2013-04-23 05:45:00,52.9,46.0,30.00,SSE,165,2.0,-999.0,77,-99.99,,,0.00,weatherlink.com 1.10,2013-04-23 09:45:00,
2013-04-23 06:00:00,52.8,46.0,29.99,SE,141,5.0,-999.0,77,-99.99,,,0.00,weatherlink.com 1.10,2013-04-23 10:00:00,
2013-04-23 06:15:00,52.7,46.0,29.96,SE,141,6.0,-999.0,78,-99.99,,,0.00,weatherlink.com 1.10,2013-04-23 10:15:00,
2013-04-23 06:30:00,52.8,46.0,29.98,SE,138,6.0,-999.0,78,-99.99,,,0.00,weatherlink.com 1.10,2013-04-23 10:30:00,
2013-04-23 06:45:00,52.8,46.0,29.96,SE,143,4.0,-999.0,77,-99.99,,,0.00,weatherlink.com 1.10,2013-04-23 10:45:00,
2013-04-23 07:00:00,52.9,46.0,29.96,South,188,3.0,-999.0,76,-99.99,,,0.00,weatherlink.com 1.10,2013-04-23 11:00:00,
2013-04-23 07:15:00,52.9,46.0,29.97,South,183,3.0,-999.0,76,-99.99,,,0.00,weatherlink.com 1.10,2013-04-23 11:15:00,
2013-04-23 07:30:00,53.2,46.0,29.99,SSW,192,4.0,-999.0,77,-99.99,,,0.00,weatherlink.com 1.10,2013-04-23 11:30:00,
2013-04-23 07:45:00,53.7,46.0,29.98,SSW,194,3.0,-999.0,76,-99.99,,,0.00,weatherlink.com 1.10,2013-04-23 11:45:00,
2013-04-23 08:00:00,54.3,47.0,29.99,South,188,3.0,-999.0,77,-99.99,,,0.00,weatherlink.com 1.10,2013-04-23 12:00:00,
2013-04-23 08:15:00,54.4,47.0,29.98,SSW,194,4.0,-999.0,77,-99.99,,,0.00,weatherlink.com 1.10,2013-04-23 12:15:00,
2013-04-23 08:30:00,54.9,48.0,29.98,South,183,4.0,-999.0,77,-99.99,,,0.00,weatherlink.com 1.10,2013-04-23 12:30:00,
2013-04-23 08:45:00,55.5,48.0,29.97,South,189,5.0,-999.0,75,-99.99,,,0.00,weatherlink.com 1.10,2013-04-23 12:45:00,
2013-04-23 09:00:00,56.1,48.0,29.97,South,174,5.0,-999.0,75,-99.99,,,0.00,weatherlink.com 1.10,2013-04-23 13:00:00,
2013-04-23 09:15:00,56.6,48.0,29.97,South,175,6.0,-999.0,73,-99.99,,,0.00,weatherlink.com 1.10,2013-04-23 13:15:00,
2013-04-23 09:30:00,57.2,49.0,29.96,South,175,6.0,-999.0,74,-99.99,,,0.00,weatherlink.com 1.10,2013-04-23 13:30:00,
2013-04-23 09:45:00,58.0,49.0,29.96,South,187,6.0,-999.0,73,-99.99,,,0.00,weatherlink.com 1.10,2013-04-23 13:45:00,
2013-04-23 10:01:00,59.1,50.0,29.96,South,176,9.0,-999.0,71,-99.99,,,0.00,weatherlink.com 1.10,2013-04-23 14:01:00,
2013-04-23 10:16:00,59.8,50.0,29.96,SSE,168,7.0,-999.0,69,-99.99,,,0.00,weatherlink.com 1.10,2013-04-23 14:16:00,
2013-04-23 10:31:00,60.6,50.0,29.96,South,170,9.0,-999.0,68,-99.99,,,0.00,weatherlink.com 1.10,2013-04-23 14:31:00,
2013-04-23 10:46:00,61.1,51.0,29.96,South,179,10.0,-999.0,69,-99.99,,,0.00,weatherlink.com 1.10,2013-04-23 14:46:00,
2013-04-23 11:01:00,61.4,51.0,29.96,South,177,9.0,-999.0,68,-99.99,,,0.00,weatherlink.com 1.10,2013-04-23 15:01:00,
2013-04-23 11:16:00,61.5,50.0,29.96,South,180,10.0,-999.0,67,-99.99,,,0.00,weatherlink.com 1.10,2013-04-23 15:16:00,
2013-04-23 11:31:00,61.7,51.0,29.96,South,187,8.0,-999.0,68,-99.99,,,0.00,weatherlink.com 1.10,2013-04-23 15:31:00,
2013-04-23 11:46:00,62.0,51.0,29.96,SSW,193,9.0,-999.0,68,-99.99,,,0.00,weatherlink.com 1.10,2013-04-23 15:46:00,
2013-04-23 12:01:00,62.5,53.0,29.96,South,181,7.0,-999.0,70,-99.99,,,0.00,weatherlink.com 1.10,2013-04-23 16:01:00,
2013-04-23 12:16:00,63.1,52.0,29.95,SSW,194,9.0,-999.0,68,-99.99,,,0.00,weatherlink.com 1.10,2013-04-23 16:16:00,
2013-04-23 12:31:00,63.7,52.0,29.95,South,190,12.0,-999.0,67,-99.99,,,0.00,weatherlink.com 1.10,2013-04-23 16:31:00,
2013-04-23 12:46:00,63.8,53.0,29.94,South,184,14.0,-999.0,68,-99.99,,,0.00,weatherlink.com 1.10,2013-04-23 16:46:00,
2013-04-23 13:01:00,64.4,53.0,29.93,SSW,202,13.0,-999.0,66,-99.99,,,0.00,weatherlink.com 1.10,2013-04-23 17:01:00,
2013-04-23 13:16:00,64.1,53.0,29.92,SSW,209,15.0,-999.0,67,-99.99,,,0.00,weatherlink.com 1.10,2013-04-23 17:16:00,
2013-04-23 13:31:00,62.8,54.0,29.92,SSW,211,16.0,-999.0,73,-99.99,,,0.00,weatherlink.com 1.10,2013-04-23 17:31:00,
2013-04-23 13:46:00,60.7,55.0,29.93,SW,229,15.0,-999.0,81,-99.99,,,0.00,weatherlink.com 1.10,2013-04-23 17:46:00,
2013-04-23 14:01:00,58.9,55.0,29.93,SW,232,12.0,-999.0,88,-99.99,,,0.01,weatherlink.com 1.10,2013-04-23 18:01:00,
2013-04-23 14:16:00,58.3,56.0,29.93,SSW,211,10.0,-999.0,91,-99.99,,,0.02,weatherlink.com 1.10,2013-04-23 18:16:00,
2013-04-23 14:31:00,58.5,56.0,29.93,SSW,205,13.0,-999.0,91,-99.99,,,0.04,weatherlink.com 1.10,2013-04-23 18:31:00,
2013-04-23 14:46:00,58.1,56.0,29.92,SSW,209,12.0,-999.0,92,-99.99,,,0.06,weatherlink.com 1.10,2013-04-23 18:46:00,
2013-04-23 15:01:00,58.1,56.0,29.92,SSW,198,17.0,-999.0,92,-99.99,,,0.06,weatherlink.com 1.10,2013-04-23 19:01:00,
2013-04-23 15:16:00,58.1,56.0,29.91,SSW,197,13.0,-999.0,93,-99.99,,,0.07,weatherlink.com 1.10,2013-04-23 19:16:00,
2013-04-23 15:31:00,58.3,56.0,29.90,South,186,10.0,-999.0,93,-99.99,,,0.07,weatherlink.com 1.10,2013-04-23 19:31:00,
2013-04-23 15:46:00,58.2,56.0,29.89,SSW,192,11.0,-999.0,93,-99.99,,,0.07,weatherlink.com 1.10,2013-04-23 19:46:00,
2013-04-23 16:01:00,58.2,56.0,29.89,SSW,206,12.0,-999.0,92,-99.99,,,0.07,weatherlink.com 1.10,2013-04-23 20:01:00,
2013-04-23 16:16:00,58.1,56.0,29.89,SSW,209,11.0,-999.0,92,-99.99,,,0.07,weatherlink.com 1.10,2013-04-23 20:16:00,
2013-04-23 16:31:00,57.9,56.0,29.88,SSW,194,9.0,-999.0,94,-99.99,,,0.08,weatherlink.com 1.10,2013-04-23 20:31:00,
2013-04-23 16:46:00,57.8,56.0,29.87,SSW,204,9.0,-999.0,94,-99.99,,,0.08,weatherlink.com 1.10,2013-04-23 20:46:00,
2013-04-23 17:01:00,57.8,56.0,29.86,SSW,196,6.0,-999.0,95,-99.99,,,0.09,weatherlink.com 1.10,2013-04-23 21:01:00,
2013-04-23 17:16:00,57.8,56.0,29.85,South,191,5.0,-999.0,95,-99.99,,,0.09,weatherlink.com 1.10,2013-04-23 21:16:00,
2013-04-23 17:31:00,57.7,56.0,29.85,SSW,192,7.0,-999.0,95,-99.99,,,0.09,weatherlink.com 1.10,2013-04-23 21:31:00,
2013-04-23 17:46:00,57.6,56.0,29.84,SSW,209,7.0,-999.0,95,-99.99,,,0.12,weatherlink.com 1.10,2013-04-23 21:46:00,
2013-04-23 18:01:00,57.3,56.0,29.83,South,184,4.0,-999.0,95,-99.99,,,0.15,weatherlink.com 1.10,2013-04-23 22:01:00,
2013-04-23 18:17:00,57.2,56.0,29.82,South,178,2.0,-999.0,96,-99.99,,,0.16,weatherlink.com 1.10,2013-04-23 22:17:00,
2013-04-23 18:32:00,57.1,56.0,29.82,South,178,5.0,-999.0,97,-99.99,,,0.16,weatherlink.com 1.10,2013-04-23 22:32:00,
2013-04-23 18:47:00,57.0,56.0,29.81,SSE,150,5.0,-999.0,97,-99.99,,,0.19,weatherlink.com 1.10,2013-04-23 22:47:00,
2013-04-23 19:02:00,56.9,56.0,29.80,SSE,150,0.0,-999.0,97,-99.99,,,0.23,weatherlink.com 1.10,2013-04-23 23:02:00,
2013-04-23 19:17:00,56.9,56.0,29.79,South,183,2.0,-999.0,97,-99.99,,,0.24,weatherlink.com 1.10,2013-04-23 23:17:00,
2013-04-23 19:32:00,57.1,57.0,29.78,South,172,5.0,-999.0,98,-99.99,,,0.24,weatherlink.com 1.10,2013-04-23 23:32:00,
2013-04-23 19:47:00,57.2,57.0,29.77,South,184,4.0,-999.0,98,-99.99,,,0.25,weatherlink.com 1.10,2013-04-23 23:47:00,
2013-04-23 20:02:00,57.5,57.0,29.77,South,186,7.0,-999.0,98,-99.99,,,0.25,weatherlink.com 1.10,2013-04-24 00:02:00,
2013-04-23 20:17:00,57.6,57.0,29.76,South,182,5.0,-999.0,97,-99.99,,,0.31,weatherlink.com 1.10,2013-04-24 00:17:00,
2013-04-23 20:32:00,57.7,57.0,29.77,South,186,6.0,-999.0,97,-99.99,,,0.36,weatherlink.com 1.10,2013-04-24 00:32:00,
2013-04-23 20:47:00,57.7,57.0,29.77,South,181,7.0,-999.0,97,-99.99,,,0.44,weatherlink.com 1.10,2013-04-24 00:47:00,
2013-04-23 21:02:00,57.8,57.0,29.77,SSW,209,7.0,-999.0,98,-99.99,,,0.51,weatherlink.com 1.10,2013-04-24 01:02:00,
2013-04-23 21:17:00,57.6,57.0,29.77,SW,215,5.0,-999.0,98,-99.99,,,0.55,weatherlink.com 1.10,2013-04-24 01:17:00,
2013-04-23 21:32:00,57.5,57.0,29.78,West,269,5.0,-999.0,98,-99.99,,,0.57,weatherlink.com 1.10,2013-04-24 01:32:00,
2013-04-23 21:47:00,57.4,57.0,29.79,WSW,256,7.0,-999.0,98,-99.99,,,0.65,weatherlink.com 1.10,2013-04-24 01:47:00,
2013-04-23 22:02:00,54.0,53.0,29.79,NW,317,4.0,-999.0,96,-99.99,,,0.70,weatherlink.com 1.10,2013-04-24 02:02:00,
2013-04-23 22:17:00,49.4,48.0,29.80,North,5,13.0,-999.0,95,-99.99,,,0.70,weatherlink.com 1.10,2013-04-24 02:17:00,
2013-04-23 22:32:00,44.7,43.0,29.81,NNW,334,7.0,-999.0,95,-99.99,,,0.73,weatherlink.com 1.10,2013-04-24 02:32:00,
2013-04-23 22:47:00,43.6,43.0,29.81,North,355,10.0,-999.0,96,-99.99,,,0.75,weatherlink.com 1.10,2013-04-24 02:47:00,
2013-04-23 23:02:00,43.2,42.0,29.81,NNW,344,10.0,-999.0,96,-99.99,,,0.78,weatherlink.com 1.10,2013-04-24 03:02:00,
2013-04-23 23:17:00,43.0,42.0,29.82,North,360,12.0,-999.0,96,-99.99,,,0.80,weatherlink.com 1.10,2013-04-24 03:17:00,
2013-04-23 23:47:00,42.6,42.0,29.82,North,360,8.0,-999.0,97,-99.99,,,0.85,weatherlink.com 1.10,2013-04-24 03:47:00,